When you browse on this site, cookies collect data to enhance your experience and personalize the content and advertising you see.
Visit our Privacy Policy to learn more. By continuing to use the site, you agree to this use of cookies and data.
  • En España
  • Lista de países
  • Para 7 días
  • Temperatura del agua
  • Mapa Satelital
  • El tiempo en el mapa
  • Informadores
  • user-avatar
    Iniciar sesión

    Tiempo cada hora Castlebar

    Hoy, 17 Noviembre, Sábado

    Tiempo Temperatura Precipitaciones Viento Presión Humedad
    00:00 +11°C° 0 mm 8 mps 758 mmHg 88%
    01:00 +11°C° 0 mm 8 mps 758 mmHg 87%
    02:00 +12°C° 0 mm 8 mps 759 mmHg 87%
    03:00 +12°C° 0 mm 8 mps 759 mmHg 87%
    04:00 +12°C° 0 mm 8 mps 759 mmHg 87%
    05:00 +12°C° 0 mm 8 mps 759 mmHg 87%
    06:00 +12°C° 0 mm 8 mps 759 mmHg 87%
    07:00 +12°C° 0 mm 8 mps 760 mmHg 87%
    08:00 +12°C° 0 mm 8 mps 760 mmHg 87%
    09:00 +12°C° 0 mm 8 mps 760 mmHg 86%
    10:00 +12°C° 0 mm 8 mps 760 mmHg 85%
    11:00 +12°C° 0 mm 8 mps 761 mmHg 84%
    12:00 +12°C° 0 mm 7 mps 761 mmHg 84%
    13:00 +12°C° 0 mm 7 mps 761 mmHg 84%
    14:00 +12°C° 0 mm 7 mps 761 mmHg 84%
    15:00 +11°C° 0 mm 7 mps 761 mmHg 85%
    16:00 +10°C° 0 mm 7 mps 761 mmHg 85%
    17:00 +10°C° 0 mm 7 mps 761 mmHg 85%
    18:00 +9°C° 0 mm 7 mps 761 mmHg 84%
    19:00 +8°C° 0 mm 7 mps 762 mmHg 83%
    20:00 +8°C° 0 mm 7 mps 762 mmHg 83%
    21:00 +7°C° 0 mm 6 mps 762 mmHg 82%
    22:00 +7°C° 0 mm 6 mps 762 mmHg 81%
    23:00 +7°C° 0 mm 6 mps 762 mmHg 81%

    Mañana, 18 Noviembre, Domingo

    Tiempo Temperatura Precipitaciones Viento Presión Humedad
    00:00 +7°C° 0 mm 6 mps 763 mmHg 81%
    01:00 +7°C° 0 mm 6 mps 763 mmHg 81%
    02:00 +5°C° 0 mm 6 mps 763 mmHg 82%
    03:00 +5°C° 0 mm 6 mps 763 mmHg 82%
    04:00 +5°C° 0 mm 6 mps 763 mmHg 83%
    05:00 +5°C° 0 mm 6 mps 763 mmHg 83%
    06:00 +5°C° 0 mm 6 mps 764 mmHg 83%
    07:00 +5°C° 0 mm 6 mps 764 mmHg 83%
    08:00 +4°C° 0 mm 6 mps 764 mmHg 82%
    09:00 +7°C° 0 mm 6 mps 765 mmHg 78%
    10:00 +8°C° 0 mm 6 mps 765 mmHg 73%
    11:00 +9°C° 0 mm 6 mps 765 mmHg 69%
    12:00 +9°C° 0 mm 6 mps 765 mmHg 69%
    13:00 +9°C° 0 mm 6 mps 765 mmHg 69%
    14:00 +9°C° 0 mm 5 mps 765 mmHg 69%
    15:00 +8°C° 0 mm 5 mps 765 mmHg 73%
    16:00 +7°C° 0 mm 5 mps 765 mmHg 76%
    17:00 +6°C° 0 mm 5 mps 765 mmHg 79%
    18:00 +6°C° 0 mm 5 mps 765 mmHg 79%
    19:00 +5°C° 0 mm 5 mps 765 mmHg 79%
    20:00 +5°C° 0 mm 5 mps 765 mmHg 79%
    21:00 +5°C° 0 mm 5 mps 765 mmHg 79%
    22:00 +5°C° 0 mm 5 mps 765 mmHg 78%
    23:00 +5°C° 0 mm 5 mps 765 mmHg 78%

    Pasado mañana, 19 Noviembre, Lunes

    Tiempo Temperatura Precipitaciones Viento Presión Humedad
    00:00 +5°C° 0 mm 5 mps 765 mmHg 78%
    01:00 +5°C° 0 mm 5 mps 765 mmHg 78%
    02:00 +3°C° 0 mm 5 mps 764 mmHg 78%
    03:00 +3°C° 0 mm 5 mps 764 mmHg 78%
    04:00 +3°C° 0 mm 5 mps 764 mmHg 77%
    05:00 +3°C° 0 mm 5 mps 764 mmHg 77%
    06:00 +3°C° 0 mm 5 mps 764 mmHg 78%
    07:00 +3°C° 0 mm 5 mps 764 mmHg 79%
    08:00 +3°C° 0 mm 5 mps 764 mmHg 80%
    09:00 +5°C° 0 mm 5 mps 764 mmHg 79%
    10:00 +7°C° 0 mm 6 mps 764 mmHg 77%
    11:00 +8°C° 0 mm 6 mps 764 mmHg 76%
    12:00 +8°C° 0 mm 6 mps 764 mmHg 77%
    13:00 +8°C° 0 mm 6 mps 763 mmHg 78%
    14:00 +8°C° 0 mm 6 mps 763 mmHg 79%
    15:00 +7°C° 0 mm 6 mps 763 mmHg 78%
    16:00 +6°C° 0 mm 5 mps 763 mmHg 78%
    17:00 +6°C° 0 mm 5 mps 763 mmHg 77%
    18:00 +5°C° 0 mm 5 mps 763 mmHg 79%
    19:00 +5°C° 0 mm 5 mps 763 mmHg 81%
    20:00 +5°C° 0 mm 4 mps 764 mmHg 83%
    21:00 +5°C° 0 mm 4 mps 764 mmHg 82%
    22:00 +5°C° 0 mm 4 mps 763 mmHg 81%
    23:00 +5°C° 0 mm 4 mps 763 mmHg 81%

    20 Noviembre, Martes

    Tiempo Temperatura Precipitaciones Viento Presión Humedad
    00:00 +5°C° 0 mm 4 mps 763 mmHg 80%
    01:00 +6°C° 0 mm 4 mps 763 mmHg 80%
    02:00 +6°C° 0 mm 4 mps 763 mmHg 79%
    03:00 +5°C° 0 mm 4 mps 763 mmHg 79%
    04:00 +5°C° 0 mm 4 mps 762 mmHg 80%
    05:00 +5°C° 0 mm 4 mps 762 mmHg 80%
    06:00 +5°C° 0 mm 5 mps 762 mmHg 80%
    07:00 +5°C° 0 mm 5 mps 762 mmHg 80%
    08:00 +5°C° 0 mm 5 mps 762 mmHg 80%
    09:00 +5°C° 0 mm 5 mps 762 mmHg 79%
    10:00 +5°C° 0 mm 5 mps 762 mmHg 77%
    11:00 +5°C° 0 mm 6 mps 761 mmHg 75%
    12:00 +6°C° 0 mm 5 mps 761 mmHg 75%
    13:00 +6°C° 0 mm 5 mps 761 mmHg 74%
    14:00 +6°C° 0 mm 5 mps 760 mmHg 74%
    15:00 +5°C° 0 mm 5 mps 760 mmHg 77%
    16:00 +3°C° 0 mm 5 mps 760 mmHg 80%
    17:00 +3°C° 0 mm 5 mps 760 mmHg 84%
    18:00 +2°C° 0 mm 5 mps 760 mmHg 84%
    19:00 +2°C° 0 mm 5 mps 760 mmHg 84%
    20:00 +2°C° 0 mm 5 mps 760 mmHg 84%
    21:00 +2°C° 0 mm 5 mps 760 mmHg 84%
    22:00 +2°C° 0 mm 5 mps 760 mmHg 85%
    23:00 +2°C° 0 mm 5 mps 760 mmHg 85%

    21 Noviembre, Miércoles

    Tiempo Temperatura Precipitaciones Viento Presión Humedad
    00:00 +2°C° 0 mm 5 mps 759 mmHg 85%
    01:00 +2°C° 0 mm 5 mps 759 mmHg 85%
    02:00 +2°C° 0 mm 5 mps 759 mmHg 85%
    03:00 +2°C° 0 mm 5 mps 759 mmHg 85%
    04:00 +2°C° 0 mm 5 mps 759 mmHg 85%
    05:00 +2°C° 0 mm 5 mps 759 mmHg 84%
    06:00 +2°C° 0 mm 5 mps 759 mmHg 84%
    07:00 +3°C° 0 mm 5 mps 759 mmHg 84%
    08:00 +3°C° 0 mm 5 mps 759 mmHg 83%
    09:00 +4°C° 0 mm 6 mps 759 mmHg 81%
    10:00 +4°C° 0 mm 6 mps 759 mmHg 79%
    11:00 +5°C° 0 mm 6 mps 759 mmHg 77%
    12:00 +5°C° 0 mm 6 mps 759 mmHg 77%
    13:00 +5°C° 0 mm 6 mps 759 mmHg 77%
    14:00 +5°C° 0 mm 6 mps 758 mmHg 77%
    15:00 +6°C° 0 mm 5 mps 758 mmHg 79%
    16:00 +5°C° 0 mm 5 mps 758 mmHg 81%
    17:00 +3°C° 0 mm 5 mps 758 mmHg 83%
    18:00 +3°C° 0 mm 5 mps 758 mmHg 83%
    19:00 +3°C° 0 mm 5 mps 759 mmHg 84%
    20:00 +3°C° 0 mm 5 mps 759 mmHg 84%
    21:00 +3°C° 0 mm 5 mps 758 mmHg 84%
    22:00 +3°C° 0 mm 5 mps 758 mmHg 84%
    23:00 +3°C° 0 mm 5 mps 758 mmHg 85%

    22 Noviembre, Jueves

    Tiempo Temperatura Precipitaciones Viento Presión Humedad
    00:00 +3°C° 0 mm 5 mps 758 mmHg 84%
    01:00 +3°C° 0 mm 5 mps 758 mmHg 84%
    02:00 +3°C° 0 mm 5 mps 757 mmHg 84%
    03:00 +2°C° 0 mm 5 mps 757 mmHg 84%
    04:00 +2°C° 0 mm 5 mps 757 mmHg 85%
    05:00 +2°C° 0 mm 5 mps 757 mmHg 85%
    06:00 +3°C° 0 mm 4 mps 757 mmHg 86%
    07:00 +3°C° 0 mm 4 mps 757 mmHg 86%
    08:00 +3°C° 0 mm 4 mps 757 mmHg 87%
    09:00 +4°C° 0 mm 4 mps 757 mmHg 82%
    10:00 +5°C° 0 mm 4 mps 757 mmHg 78%
    11:00 +6°C° 0 mm 4 mps 757 mmHg 73%
    12:00 +6°C° 0 mm 4 mps 756 mmHg 74%
    13:00 +6°C° 0 mm 4 mps 756 mmHg 75%
    14:00 +7°C° 0 mm 3 mps 756 mmHg 75%
    15:00 +5°C° 0 mm 3 mps 756 mmHg 79%
    16:00 +4°C° 0 mm 3 mps 756 mmHg 82%
    17:00 +5°C° 0 mm 2 mps 756 mmHg 85%
    18:00 +4°C° 0 mm 2 mps 756 mmHg 86%
    19:00 +4°C° 0 mm 2 mps 756 mmHg 87%
    20:00 +5°C° 0 mm 1 mps 756 mmHg 87%
    21:00 +5°C° 0.1 mm 1 mps 756 mmHg 88%
    22:00 +5°C° 0.1 mm 1 mps 756 mmHg 88%
    23:00 +5°C° 0.1 mm 1 mps 756 mmHg 89%
    Mostrar más